{"data":{"norad_id":51789,"intl_designator":"2022-017X","name":"STARLINK-3639","alt_names":[],"object_type":"PAYLOAD","status":"ACTIVE","operator":null,"country":"US","launch_date":"2022-02-25","launch_site_code":"AFWTR","launch_vehicle":null,"mission":null,"orbit_class":"UNKNOWN","rcs_meters":null,"size_class":null,"mass_kg":null,"dimensions":null,"purposes":["comms"],"wikipedia_slug":null,"has_3d_model":false,"image_url":null,"decayed_at":null,"tle_current":{"epoch":"2026-09-20T03:53:51.075744Z","epoch_age_seconds":80816,"freshness":"FRESH","line1":"1 51789U 22017X   26263.16239671 -.00000188  00000+0  55684-5 0  9996","line2":"2 51789  53.1593 181.6310 0001264  78.4056 281.7089 15.34385956251834","mean_motion":15.34385956,"eccentricity":0.0001264,"inclination_deg":53.1593,"raan_deg":181.631,"arg_perigee_deg":78.4056,"mean_anomaly_deg":281.7089,"bstar":5.5684e-6,"rev_number":25183,"period_min":93.848617055512,"perigee_km":461.88029477057,"apogee_km":463.60966973568,"semimajor_km":6840.8819822531,"source":"CELESTRAK","updated_at":"2026-09-20T09:00:39.940299Z"}}}